Simultaneous Nadir Overpasses (SNOs) Predictions

Prediction of SNOs between NPP and TERRA Satellite Orbit:

Table of predicted SNOs for the next 14.0 days since TLE Epoch: 4/13/2024
Index Date (NPP) Time (NPP) Lat,Lon (NPP) SZA (NPP ) Date (TERRA) Time (TERRA) Lat,Lon (TERRA) SZA (TERRA ) Distance(km) Time Diff (sec)
1 04/14/2024 15:45:44 -72.06, 116.75 117.65 04/14/2024 15:46:46 -72.05, 116.75 117.67 1.11 62
2 04/14/2024 16:36:28 71.95, -75.73 62.23 04/14/2024 16:36:09 71.94, -75.78 62.22 2.05 19
3 04/17/2024 03:48:56 72.05, 115.97 61.45 04/17/2024 03:49:46 72.03, 115.92 61.42 3.07 50
4 04/17/2024 04:39:38 -71.95, -76.54 118.66 04/17/2024 04:39:09 -71.97, -76.52 118.65 1.43 29
5 04/19/2024 15:52:06 -72.06, 115.16 119.42 04/19/2024 15:52:46 -72.03, 115.14 119.45 2.75 40
6 04/19/2024 16:42:50 71.95, -77.33 60.47 04/19/2024 16:42:08 71.97, -77.31 60.48 1.66 42
7 04/22/2024 03:55:18 72.07, 114.34 59.75 04/22/2024 03:55:44 72.05, 114.40 59.73 2.36 26
8 04/22/2024 04:46:00 -71.96, -78.15 120.38 04/22/2024 04:45:08 -71.95, -78.12 120.39 1.78 52
9 04/24/2024 15:08:01 72.95, -55.54 59.88 04/24/2024 15:09:06 72.87, -52.56 59.68 97.90 65
10 04/24/2024 15:58:27 -72.03, 113.62 121.13 04/24/2024 15:58:44 -72.02, 113.56 121.14 2.36 17
11 04/24/2024 16:49:11 71.93, -78.89 58.76 04/24/2024 16:48:06 71.94, -78.91 58.78 1.30 65
12 04/27/2024 03:11:03 -72.56, -55.52 121.36 04/27/2024 03:12:13 -72.44, -54.14 121.54 47.99 70



Historial Predications of SNOs between NPP and TERRA
